Weather History for MRLB - June, 2013

Change the Weather History Date:

Friday, June 14, 2013

  Actual Average Record
Temperature  
Mean Temperature 80 °F -  
Max Temperature 88 °F 86 °F 95 °F (1998)
Min Temperature 71 °F 75 °F 71 °F (2013)
Cooling Degree Days 14    
Growing Degree Days 30 (Base 50)    
Moisture  
Dew Point 74 °F    
Average Humidity 76    
Maximum Humidity 94    
Minimum Humidity 56    
Precipitation  
Precipitation 0.00 in - - ()
Sea Level Pressure  
Sea Level Pressure 29.82 in    
Wind  
Wind Speed 3 mph ()    
Max Wind Speed 9 mph    
Max Gust Speed -    
Visibility 6.4 miles    
Events Fog , Rain , Thunderstorm    
Averages and records for this station are not official NWS values.
T = Trace of Precipitation, MM = Missing Value Source: Averaged Metar Reports

Daily Weather History Graph

Daily Weather History Graph

Search for Another Location

Airport or City:

Trip Planner

Search our weather history database for the weather conditions in past years. The results will help you decide how hot, cold, wet, or windy it might be!

Date:

Astronomy

Jun. 14, 2013 Rise Set
Actual Time 5:20 AM CST 6:04 PM CST
Civil Twilight 4:57 AM CST 6:27 PM CST
Nautical Twilight 4:30 AM CST 6:55 PM CST
Astronomical Twilight 4:02 AM CST 7:22 PM CST
Moon 10:05 AM CST (6/14) 10:35 PM CST (6/14)
Length of Visible Light 13h 30m
Length of Day
12h 44m
Waxing Crescent, 31% of the Moon is Illuminated
Jun 14
Waxing Crescent
Jun 16
First Quarter
Jun 23
Full
Jun 29
Last Quarter
Jul 8
New

Hourly Weather History & Observations

Time (CST) Temp. Heat Index Dew Point Humidity Pressure Visibility Wind Dir Wind Speed Gust Speed Precip Events Conditions
6:00 AM 73 °F - 71 °F 93% 29.83 in 0 mi Calm Calm - - Fog Partial Fog
6:00 AM 73.4 °F - 71.6 °F 94% 29.82 in 0.2 mi Calm Calm - N/A   Overcast
6:01 AM 73.4 °F - 71.6 °F 94% 29.82 in 0.2 mi Calm Calm - N/A Fog Fog
6:14 AM 73.4 °F - 71.6 °F 94% 29.82 in 6.2 mi South 4.6 mph - N/A   Mostly Cloudy
6:18 AM 73.4 °F - 71.6 °F 94% 29.82 in 6.2 mi South 4.6 mph - N/A   Mostly Cloudy
7:00 AM 77.0 °F - 73.4 °F 89% 29.83 in 6.2 mi SE 3.5 mph - N/A   Mostly Cloudy
8:00 AM 80.6 °F 85.4 °F 73.4 °F 79% 29.83 in 6.2 mi SSW 2.3 mph - N/A   Mostly Cloudy
9:00 AM 81 °F - 73 °F 71% 29.87 in 12 mi Calm Calm - -   Overcast
9:00 AM 80.6 °F 85.4 °F 73.4 °F 79% 29.85 in 6.2 mi Calm Calm - N/A   Scattered Clouds
10:00 AM 84.2 °F 90.9 °F 73.4 °F 70% 29.86 in 6.2 mi Variable 2.3 mph - N/A   Scattered Clouds
11:00 AM 87.8 °F 95.6 °F 73.4 °F 62% 29.84 in 6.2 mi SE 3.5 mph - N/A   Scattered Clouds
12:00 PM - - 87 °F %  in 12 mi NW 4.6 mph - -   Overcast
12:00 PM 87.8 °F 95.6 °F 73.4 °F 62% 29.82 in 6.2 mi NW 4.6 mph - N/A   Scattered Clouds
1:00 PM 87.8 °F 95.6 °F 73.4 °F 62% 29.80 in 6.2 mi East 2.3 mph - N/A Rain Light Rain
2:00 PM 86.0 °F 93.4 °F 73.4 °F 66% 29.78 in 6.2 mi WNW 9.2 mph - N/A   Scattered Clouds
3:00 PM 88 °F - 74 °F 56% 29.78 in 12 mi West 9.2 mph - -   Partly Cloudy
3:00 PM 87.8 °F 95.6 °F 73.4 °F 62% 29.77 in 6.2 mi West 9.2 mph - N/A   Scattered Clouds
4:00 PM 84.2 °F 90.9 °F 73.4 °F 70% 29.77 in 6.2 mi SW 5.8 mph - N/A   Mostly Cloudy
5:00 PM 86.0 °F 93.4 °F 73.4 °F 66% 29.77 in 6.2 mi WSW 5.8 mph - N/A   Scattered Clouds
6:00 PM 83 °F - 74 °F 67% 29.81 in 12 mi SW 6.9 mph - -   Partly Cloudy
6:00 PM 82.4 °F 88.2 °F 73.4 °F 74% 29.79 in 6.2 mi SW 6.9 mph - N/A   Scattered Clouds
7:00 PM 78.8 °F - 75.2 °F 89% 29.82 in 5.6 mi SSE 5.8 mph - N/A Rain , Thunderstorm Rain
8:00 PM 77.0 °F - 71.6 °F 83% 29.85 in 6.2 mi WNW 3.5 mph - N/A Thunderstorm Mostly Cloudy